Weather History for Stevensville, MD

Change the Weather History Date:

Sunday, January 19, 2014

  Actual Average (KESN) Record (KESN)
Temperature  
Mean Temperature 34 °F -  
Max Temperature 44 °F 43 °F 67 °F (1951)
Min Temperature 24 °F 24 °F 4 °F (1957)
Degree Days  
Heating Degree Days 31    
Moisture  
Dew Point 20 °F    
Average Humidity 53    
Maximum Humidity 74    
Minimum Humidity 39    
Precipitation  
Precipitation 0.00 in - - ()
Sea Level Pressure  
Sea Level Pressure 29.84 in    
Wind  
Wind Speed 5 mph (SW)    
Max Wind Speed 13 mph    
Max Gust Speed 18 mph    
Visibility 10 miles    
Events      
Averages and records for this station are not official NWS values.
T = Trace of Precipitation, MM = Missing Value Source: NWS Daily Summary

Daily Weather History Graph

Daily Weather History Graph

Search for Another Location

Airport:

Trip Planner

Search our weather history database for the weather conditions in past years. The results will help you decide how hot, cold, wet, or windy it might be!

Date:

Astronomy

Jan. 19, 2014 Rise Set
Actual Time 7:20 AM EST 5:11 PM EST
Civil Twilight 6:51 AM EST 5:40 PM EST
Nautical Twilight 6:19 AM EST 6:13 PM EST
Astronomical Twilight 5:47 AM EST 6:45 PM EST
Moon 8:45 PM EST (1/19) 8:51 AM EST (1/19)
Length of Visible Light 10h 48m
Length of Day
9h 50m
Waning Gibbous, 89% of the Moon is Illuminated
Jan 19
Waning Gibbous
Jan 24
Last Quarter
Jan 30
New
Feb 6
First Quarter
Feb 14
Full

Hourly Weather History & Observations

Time (EST) Temp. Windchill Dew Point Humidity Pressure Visibility Wind Dir Wind Speed Gust Speed Precip Events Conditions
12:18 AM 26.6 °F 20.0 °F 10.4 °F 51% 29.99 in 10.0 mi WNW 5.8 mph - N/A   Clear
12:38 AM 26.6 °F 21.2 °F 8.6 °F 47% 29.97 in 10.0 mi NW 4.6 mph - N/A   Clear
12:58 AM 24.8 °F 19.1 °F 8.6 °F 50% 29.96 in 10.0 mi WNW 4.6 mph - N/A   Clear
1:18 AM 24.8 °F 19.1 °F 8.6 °F 50% 29.96 in 10.0 mi WNW 4.6 mph - N/A   Clear
1:38 AM 26.6 °F 22.6 °F 8.6 °F 47% 29.95 in 10.0 mi West 3.5 mph - N/A   Clear
1:58 AM 26.6 °F - 10.4 °F 51% 29.96 in 10.0 mi Calm Calm - N/A   Scattered Clouds
2:18 AM 26.6 °F - 10.4 °F 51% 29.96 in 10.0 mi Calm Calm - N/A   Scattered Clouds
2:38 AM 26.6 °F 22.6 °F 10.4 °F 51% 29.95 in 10.0 mi West 3.5 mph - N/A   Scattered Clouds
2:58 AM 26.6 °F - 10.4 °F 51% 29.95 in 10.0 mi Calm Calm - N/A   Clear
3:18 AM 26.6 °F - 10.4 °F 51% 29.95 in 10.0 mi Calm Calm - N/A   Scattered Clouds
3:38 AM 26.6 °F - 10.4 °F 51% 29.94 in 10.0 mi Calm Calm - N/A   Scattered Clouds
3:58 AM 26.6 °F - 12.2 °F 55% 29.93 in 10.0 mi Calm Calm - N/A   Clear
4:18 AM 26.6 °F 22.6 °F 12.2 °F 55% 29.92 in 10.0 mi South 3.5 mph - N/A   Scattered Clouds
4:38 AM 26.6 °F - 12.2 °F 55% 29.92 in 10.0 mi Calm Calm - N/A   Clear
4:58 AM 26.6 °F - 12.2 °F 55% 29.92 in 10.0 mi Calm Calm - N/A   Clear
5:18 AM 26.6 °F 22.6 °F 12.2 °F 55% 29.90 in 10.0 mi SE 3.5 mph - N/A   Clear
5:38 AM 26.6 °F - 14.0 °F 59% 29.90 in 10.0 mi Calm Calm - N/A   Clear
5:58 AM 26.6 °F - 14.0 °F 59% 29.89 in 10.0 mi Calm Calm - N/A   Clear
6:18 AM 26.6 °F - 15.8 °F 64% 29.88 in 10.0 mi Calm Calm - N/A   Scattered Clouds
6:39 AM 26.6 °F - 15.8 °F 64% 29.89 in 10.0 mi Calm Calm - N/A   Scattered Clouds
6:59 AM 24.8 °F - 15.8 °F 69% 29.88 in 10.0 mi Calm Calm - N/A   Clear
7:19 AM 24.8 °F 20.5 °F 17.6 °F 74% 29.88 in 10.0 mi SSE 3.5 mph - N/A   Clear
7:39 AM 26.6 °F 21.2 °F 19.4 °F 74% 29.88 in 10.0 mi South 4.6 mph - N/A   Clear
7:59 AM 28.4 °F 23.3 °F 19.4 °F 69% 29.87 in 10.0 mi SSE 4.6 mph - N/A   Scattered Clouds
8:19 AM 30.2 °F - 21.2 °F 69% 29.87 in 10.0 mi Calm Calm - N/A   Scattered Clouds
8:39 AM 32.0 °F 27.5 °F 23.0 °F 69% 29.86 in 10.0 mi South 4.6 mph - N/A   Clear
8:59 AM 32.0 °F 26.4 °F 19.4 °F 60% 29.86 in 10.0 mi SSW 5.8 mph - N/A   Clear
9:19 AM 33.8 °F 27.0 °F 17.6 °F 52% 29.85 in 10.0 mi SW 8.1 mph - N/A   Clear
9:39 AM 33.8 °F 27.7 °F 17.6 °F 52% 29.85 in 10.0 mi SW 6.9 mph - N/A   Clear
9:59 AM 33.8 °F 26.4 °F 17.6 °F 52% 29.84 in 10.0 mi South 9.2 mph - N/A   Clear
10:19 AM 33.8 °F 27.0 °F 19.4 °F 56% 29.85 in 10.0 mi SSW 8.1 mph - N/A   Clear
10:39 AM 35.6 °F 30.7 °F 19.4 °F 52% 29.85 in 10.0 mi SW 5.8 mph - N/A   Clear
10:59 AM 35.6 °F 30.7 °F 19.4 °F 52% 29.84 in 10.0 mi SSW 5.8 mph - N/A   Clear
11:19 AM 37.4 °F 32.1 °F 19.4 °F 48% 29.84 in 10.0 mi SW 6.9 mph - N/A   Clear
11:39 AM 37.4 °F 32.8 °F 19.4 °F 48% 29.83 in 10.0 mi SW 5.8 mph - N/A   Clear
11:59 AM 37.4 °F 31.4 °F 19.4 °F 48% 29.81 in 10.0 mi SW 8.1 mph - N/A   Clear
12:19 PM 41.0 °F 34.7 °F 19.4 °F 42% 29.80 in 10.0 mi SSW 10.4 mph - N/A   Clear
12:39 PM 42.8 °F 39.3 °F 19.4 °F 39% 29.79 in 10.0 mi SW 5.8 mph 17.3 mph N/A   Clear
12:59 PM 42.8 °F 37.5 °F 19.4 °F 39% 29.77 in 10.0 mi South 9.2 mph - N/A   Clear
1:19 PM 44.6 °F 39.7 °F 21.2 °F 39% 29.77 in 10.0 mi SW 9.2 mph - N/A   Clear
1:39 PM 44.6 °F 40.2 °F 21.2 °F 39% 29.76 in 10.0 mi SW 8.1 mph - N/A   Scattered Clouds
1:59 PM 44.6 °F 41.4 °F 21.2 °F 39% 29.76 in 10.0 mi WSW 5.8 mph - N/A   Scattered Clouds
2:19 PM 44.6 °F 43.1 °F 23.0 °F 43% 29.76 in 10.0 mi WSW 3.5 mph - N/A   Clear
2:39 PM 44.6 °F 41.4 °F 23.0 °F 43% 29.76 in 10.0 mi West 5.8 mph - N/A   Clear
2:59 PM 44.6 °F 39.7 °F 24.8 °F 46% 29.76 in 10.0 mi WSW 9.2 mph - N/A   Clear
3:20 PM 44.6 °F 40.2 °F 26.6 °F 49% 29.76 in 10.0 mi West 8.1 mph - N/A   Clear
3:40 PM 44.6 °F 39.7 °F 26.6 °F 49% 29.76 in 10.0 mi West 9.2 mph - N/A   Clear
4:00 PM 44.6 °F 40.2 °F 26.6 °F 49% 29.76 in 10.0 mi WSW 8.1 mph - N/A   Clear
4:20 PM 44.6 °F 41.4 °F 26.6 °F 49% 29.76 in 10.0 mi WSW 5.8 mph - N/A   Clear
4:40 PM 44.6 °F 40.7 °F 26.6 °F 49% 29.76 in 10.0 mi WSW 6.9 mph - N/A   Clear
5:00 PM 42.8 °F 39.3 °F 26.6 °F 53% 29.76 in 10.0 mi WSW 5.8 mph - N/A   Clear
5:20 PM 44.6 °F 40.7 °F 23.0 °F 43% 29.76 in 10.0 mi SW 6.9 mph - N/A   Clear
5:40 PM 42.8 °F 39.3 °F 24.8 °F 49% 29.77 in 10.0 mi SW 5.8 mph - N/A   Clear
6:00 PM 41.0 °F 38.0 °F 28.4 °F 61% 29.79 in 10.0 mi WSW 4.6 mph - N/A   Clear
6:20 PM 41.0 °F 38.0 °F 28.4 °F 61% 29.78 in 10.0 mi SW 4.6 mph - N/A   Clear
6:40 PM 42.8 °F 39.3 °F 26.6 °F 53% 29.79 in 10.0 mi SW 5.8 mph - N/A   Clear
7:00 PM 42.8 °F 38.6 °F 24.8 °F 49% 29.78 in 10.0 mi SSW 6.9 mph - N/A   Clear
7:20 PM 42.8 °F 38.6 °F 24.8 °F 49% 29.78 in 10.0 mi SW 6.9 mph 16.1 mph N/A   Clear
7:40 PM 42.8 °F 38.0 °F 24.8 °F 49% 29.78 in 10.0 mi SW 8.1 mph - N/A   Clear
8:00 PM 42.8 °F 37.0 °F 24.8 °F 49% 29.78 in 10.0 mi SW 10.4 mph - N/A   Clear
8:20 PM 41.0 °F 35.8 °F 26.6 °F 57% 29.78 in 10.0 mi WSW 8.1 mph - N/A   Clear
8:40 PM 41.0 °F 33.9 °F 26.6 °F 57% 29.78 in 10.0 mi WSW 12.7 mph 17.3 mph N/A   Clear
9:00 PM 41.0 °F 35.2 °F 26.6 °F 57% 29.79 in 10.0 mi WSW 9.2 mph 16.1 mph N/A   Clear
9:20 PM 41.0 °F 35.2 °F 26.6 °F 57% 29.78 in 10.0 mi WSW 9.2 mph - N/A   Clear
9:40 PM 41.0 °F 35.2 °F 24.8 °F 53% 29.78 in 10.0 mi WSW 9.2 mph 16.1 mph N/A   Clear
10:00 PM 41.0 °F 34.3 °F 26.6 °F 57% 29.78 in 10.0 mi WSW 11.5 mph 18.4 mph N/A   Clear
10:20 PM 41.0 °F 35.2 °F 26.6 °F 57% 29.78 in 10.0 mi WSW 9.2 mph - N/A   Clear
10:40 PM 41.0 °F 35.2 °F 24.8 °F 53% 29.77 in 10.0 mi SW 9.2 mph - N/A   Clear
11:00 PM 41.0 °F 37.1 °F 24.8 °F 53% 29.77 in 10.0 mi SW 5.8 mph - N/A   Clear
11:20 PM 41.0 °F 36.4 °F 24.8 °F 53% 29.76 in 10.0 mi SSW 6.9 mph - N/A   Clear
11:41 PM 41.0 °F 37.1 °F 24.8 °F 53% 29.76 in 10.0 mi SSW 5.8 mph - N/A   Clear